Simultaneous Nadir Overpasses (SNOs) Predictions

Prediction of SNOs between GOES-15 and METOP-C Satellite Orbit:

Table of predicted SNOs for the next 14.0 days since TLE Epoch: 8/29/2025
Index Date Time (GOES-15) GOES-15 Lat,Lon METOP-C Lat,Lon Distance(km) Time Diff (sec)
1 08/30/2025 17:11:55 -0.29, 61.59 0.37, 64.47 329.38 80
2 09/01/2025 05:33:27 0.35, 61.46 0.67, 59.92 176.16 80
3 09/02/2025 05:10:09 0.31, 61.45 -0.47, 64.90 393.30 80
4 09/03/2025 17:31:48 -0.37, 61.54 -0.62, 60.32 138.02 80
5 09/04/2025 17:08:30 -0.33, 61.53 0.53, 65.31 431.19 80
6 09/06/2025 05:30:02 0.38, 61.41 0.51, 60.75 75.20 80
7 09/07/2025 05:06:43 0.34, 61.40 -0.65, 65.73 493.96 80
8 09/08/2025 17:28:22 -0.39, 61.49 -0.49, 61.17 37.98 80
9 09/11/2025 05:23:56 0.40, 61.38 0.36, 61.59 23.73 80
